Time,TemperatureF,DewpointF,PressureIn,WindDirection,WindDirectionDegrees,WindSpeedMPH,WindSpeedGustMPH,Humidity,HourlyPrecipIn,Conditions,Clouds,dailyrainin,SolarRadiationWatts/m^2,SoftwareType,DateUTC
2013-03-21 00:52:00,60.0,11.0,-100.00,WNW,297,29.0,46.0,14,0.00,,,0.00,0.000000,,2013-03-21 07:52:00,
2013-03-21 01:52:00,62.0,9.0,-100.00,NW,304,26.0,40.0,12,0.00,,,0.00,0.000000,,2013-03-21 08:52:00,
2013-03-21 02:53:00,60.0,11.0,-100.00,NW,305,36.0,51.0,14,0.00,,,0.00,0.000000,,2013-03-21 09:53:00,
2013-03-21 03:02:00,60.0,11.0,-100.00,NW,305,36.0,51.0,14,0.00,,,0.00,0.000000,,2013-03-21 10:02:00,
2013-03-21 03:53:00,61.0,6.0,-100.00,WNW,301,26.0,44.0,11,0.00,,,0.00,0.000000,,2013-03-21 10:53:00,
2013-03-21 04:02:00,61.0,6.0,-100.00,WNW,301,26.0,44.0,11,0.00,,,0.00,0.000000,,2013-03-21 11:02:00,
2013-03-21 04:53:00,59.0,5.0,-100.00,NW,307,20.0,34.0,11,0.00,,,0.00,0.000000,,2013-03-21 11:53:00,
2013-03-21 05:02:00,59.0,5.0,-100.00,NW,307,20.0,34.0,11,0.00,,,0.00,0.000000,,2013-03-21 12:02:00,
2013-03-21 05:53:00,58.0,7.0,-100.00,WNW,285,28.0,44.0,13,0.00,,,0.00,0.000000,,2013-03-21 12:53:00,
2013-03-21 06:02:00,58.0,7.0,-100.00,WNW,285,28.0,44.0,13,0.00,,,0.00,0.000000,,2013-03-21 13:02:00,
2013-03-21 06:12:00,58.0,7.0,-100.00,WNW,285,28.0,44.0,13,0.00,,,0.00,0.000000,,2013-03-21 13:12:00,
2013-03-21 06:22:00,58.0,7.0,-100.00,WNW,285,28.0,44.0,13,0.00,,,0.00,0.000000,,2013-03-21 13:22:00,
2013-03-21 06:52:00,57.0,5.0,-100.00,West,272,8.0,39.0,12,0.00,,,0.00,0.000000,,2013-03-21 13:52:00,
2013-03-21 07:02:00,57.0,5.0,-100.00,West,272,8.0,39.0,12,0.00,,,0.00,0.000000,,2013-03-21 14:02:00,
2013-03-21 07:52:00,55.0,8.0,-100.00,NNE,13,22.0,31.0,15,0.00,,,0.00,10.000000,,2013-03-21 14:52:00,
2013-03-21 08:03:00,55.0,8.0,-100.00,NNE,13,22.0,31.0,15,0.00,,,0.00,10.000000,,2013-03-21 15:03:00,
2013-03-21 08:53:00,59.0,8.0,-100.00,NNE,25,15.0,30.0,13,0.00,,,0.00,146.000000,,2013-03-21 15:53:00,
2013-03-21 09:03:00,59.0,8.0,-100.00,NNE,25,15.0,30.0,13,0.00,,,0.00,146.000000,,2013-03-21 16:03:00,
2013-03-21 09:53:00,64.0,8.0,-100.00,NE,44,6.0,21.0,11,0.00,,,0.00,446.000000,,2013-03-21 16:53:00,
2013-03-21 10:02:00,64.0,8.0,-100.00,NE,44,6.0,21.0,11,0.00,,,0.00,446.000000,,2013-03-21 17:02:00,
2013-03-21 10:12:00,64.0,8.0,-100.00,NE,44,6.0,21.0,11,0.00,,,0.00,446.000000,,2013-03-21 17:12:00,
2013-03-21 10:22:00,64.0,8.0,-100.00,NE,44,6.0,21.0,11,0.00,,,0.00,446.000000,,2013-03-21 17:22:00,
2013-03-21 10:53:00,66.0,10.0,-100.00,NE,40,9.0,18.0,11,0.00,,,0.00,731.000000,,2013-03-21 17:53:00,
2013-03-21 11:02:00,66.0,10.0,-100.00,NE,40,9.0,18.0,11,0.00,,,0.00,731.000000,,2013-03-21 18:02:00,
2013-03-21 11:12:00,66.0,10.0,-100.00,NE,40,9.0,18.0,11,0.00,,,0.00,731.000000,,2013-03-21 18:12:00,
2013-03-21 11:22:00,66.0,10.0,-100.00,NE,40,9.0,18.0,11,0.00,,,0.00,731.000000,,2013-03-21 18:22:00,
2013-03-21 11:52:00,68.0,14.0,-100.00,SE,134,3.0,15.0,12,0.00,,,0.00,950.000000,,2013-03-21 18:52:00,
2013-03-21 12:02:00,68.0,14.0,-100.00,SE,134,3.0,15.0,12,0.00,,,0.00,950.000000,,2013-03-21 19:02:00,
2013-03-21 12:12:00,68.0,14.0,-100.00,SE,134,3.0,15.0,12,0.00,,,0.00,950.000000,,2013-03-21 19:12:00,
2013-03-21 12:22:00,68.0,14.0,-100.00,SE,134,3.0,15.0,12,0.00,,,0.00,950.000000,,2013-03-21 19:22:00,
2013-03-21 12:53:00,71.0,12.0,-100.00,South,174,7.0,14.0,10,0.00,,,0.00,1098.000000,,2013-03-21 19:53:00,
2013-03-21 13:02:00,71.0,12.0,-100.00,South,174,7.0,14.0,10,0.00,,,0.00,1098.000000,,2013-03-21 20:02:00,
2013-03-21 13:53:00,73.0,11.0,-100.00,South,170,9.0,20.0,9,0.00,,,0.00,1139.000000,,2013-03-21 20:53:00,
2013-03-21 14:02:00,73.0,11.0,-100.00,South,170,9.0,20.0,9,0.00,,,0.00,1139.000000,,2013-03-21 21:02:00,
2013-03-21 14:53:00,72.0,12.0,-100.00,South,174,12.0,28.0,10,0.00,,,0.00,1105.000000,,2013-03-21 21:53:00,
2013-03-21 15:02:00,72.0,12.0,-100.00,South,174,12.0,28.0,10,0.00,,,0.00,1105.000000,,2013-03-21 22:02:00,
2013-03-21 15:12:00,72.0,12.0,-100.00,South,174,12.0,28.0,10,0.00,,,0.00,1105.000000,,2013-03-21 22:12:00,
2013-03-21 15:22:00,72.0,12.0,-100.00,South,174,12.0,28.0,10,0.00,,,0.00,1105.000000,,2013-03-21 22:22:00,
2013-03-21 15:52:00,73.0,13.0,-100.00,South,178,14.0,24.0,10,0.00,,,0.00,985.000000,,2013-03-21 22:52:00,
2013-03-21 16:02:00,73.0,13.0,-100.00,South,178,14.0,24.0,10,0.00,,,0.00,985.000000,,2013-03-21 23:02:00,
2013-03-21 16:12:00,73.0,13.0,-100.00,South,178,14.0,24.0,10,0.00,,,0.00,985.000000,,2013-03-21 23:12:00,
2013-03-21 16:21:00,73.0,13.0,-100.00,South,178,14.0,24.0,10,0.00,,,0.00,985.000000,,2013-03-21 23:21:00,
2013-03-21 16:53:00,74.0,20.0,-100.00,South,174,14.0,26.0,13,0.00,,,0.00,789.000000,,2013-03-21 23:53:00,
2013-03-21 17:02:00,74.0,20.0,-100.00,South,174,14.0,26.0,13,0.00,,,0.00,789.000000,,2013-03-22 00:02:00,
2013-03-21 17:12:00,74.0,20.0,-100.00,South,174,14.0,26.0,13,0.00,,,0.00,789.000000,,2013-03-22 00:12:00,
2013-03-21 17:21:00,74.0,20.0,-100.00,South,174,14.0,26.0,13,0.00,,,0.00,789.000000,,2013-03-22 00:21:00,
2013-03-21 17:52:00,74.0,25.0,-100.00,SSW,204,11.0,23.0,16,0.00,,,0.00,534.000000,,2013-03-22 00:52:00,
2013-03-21 18:02:00,74.0,25.0,-100.00,SSW,204,11.0,23.0,16,0.00,,,0.00,534.000000,,2013-03-22 01:02:00,
2013-03-21 18:12:00,74.0,25.0,-100.00,SSW,204,11.0,23.0,16,0.00,,,0.00,534.000000,,2013-03-22 01:12:00,
2013-03-21 18:21:00,74.0,25.0,-100.00,SSW,204,11.0,23.0,16,0.00,,,0.00,534.000000,,2013-03-22 01:21:00,
2013-03-21 18:53:00,64.0,26.0,-100.00,NW,310,9.0,18.0,24,0.00,,,0.00,130.000000,,2013-03-22 01:53:00,
2013-03-21 19:02:00,64.0,26.0,-100.00,NW,310,9.0,18.0,24,0.00,,,0.00,130.000000,,2013-03-22 02:02:00,
2013-03-21 19:12:00,64.0,26.0,-100.00,NW,310,9.0,18.0,24,0.00,,,0.00,130.000000,,2013-03-22 02:12:00,
2013-03-21 19:22:00,64.0,26.0,-100.00,NW,310,9.0,18.0,24,0.00,,,0.00,130.000000,,2013-03-22 02:22:00,
2013-03-21 19:52:00,61.0,13.0,-100.00,NW,308,24.0,31.0,15,0.00,,,0.00,12.000000,,2013-03-22 02:52:00,
2013-03-21 20:02:00,61.0,13.0,-100.00,NW,308,24.0,31.0,15,0.00,,,0.00,12.000000,,2013-03-22 03:02:00,
2013-03-21 20:12:00,61.0,13.0,-100.00,NW,308,24.0,31.0,15,0.00,,,0.00,12.000000,,2013-03-22 03:12:00,
2013-03-21 20:21:00,61.0,13.0,-100.00,NW,308,24.0,31.0,15,0.00,,,0.00,12.000000,,2013-03-22 03:21:00,
2013-03-21 20:53:00,63.0,11.0,-100.00,NW,312,25.0,38.0,13,0.00,,,0.00,0.000000,,2013-03-22 03:53:00,
2013-03-21 21:03:00,63.0,11.0,-100.00,NW,312,25.0,38.0,13,0.00,,,0.00,0.000000,,2013-03-22 04:03:00,
2013-03-21 21:22:00,63.0,11.0,-100.00,NW,312,25.0,38.0,13,0.00,,,0.00,0.000000,,2013-03-22 04:22:00,
2013-03-21 21:52:00,60.0,15.0,-100.00,NW,311,25.0,35.0,17,0.00,,,0.00,0.000000,,2013-03-22 04:52:00,
2013-03-21 22:02:00,60.0,15.0,-100.00,NW,311,25.0,35.0,17,0.00,,,0.00,0.000000,,2013-03-22 05:02:00,
2013-03-21 22:12:00,60.0,15.0,-100.00,NW,311,25.0,35.0,17,0.00,,,0.00,0.000000,,2013-03-22 05:12:00,
2013-03-21 22:22:00,60.0,15.0,-100.00,NW,311,25.0,35.0,17,0.00,,,0.00,0.000000,,2013-03-22 05:22:00,
2013-03-21 22:52:00,60.0,16.0,-100.00,NW,304,19.0,32.0,18,0.00,,,0.00,0.000000,,2013-03-22 05:52:00,
2013-03-21 23:02:00,60.0,16.0,-100.00,NW,304,19.0,32.0,18,0.00,,,0.00,0.000000,,2013-03-22 06:02:00,
2013-03-21 23:12:00,60.0,16.0,-100.00,NW,304,19.0,32.0,18,0.00,,,0.00,0.000000,,2013-03-22 06:12:00,
2013-03-21 23:21:00,60.0,16.0,-100.00,NW,304,19.0,32.0,18,0.00,,,0.00,0.000000,,2013-03-22 06:21:00,
2013-03-21 23:52:00,61.0,20.0,-100.00,NW,322,16.0,29.0,20,0.00,,,0.00,0.000000,,2013-03-22 06:52:00,